Weather in Shalayevo

Russia / Yaroslavl Oblast     57°21′41″N   39°35′34″E
temp.,
°C
wind,
m/s
gust,
m/s
humid.,
%
clouds,
%
prec.,
mm/h
press.,
hPa
HPBL,
m
17 may, mon
mon1700:00+13wsw22900 0.0 101413
03:00+12wsw119167 0.0 101511
06:00+14sse1187100 0.0 101643
09:00+19e227487 0.0 1016408
12:00+22se346016 0.0 10161096
15:00+24ese355275 0.0 10151312
18:00+23e4872100 0.0 1013257
21:00+18e61388100 1.3 1013269
18 may, tue
tue1800:00+16ese4119599 0.0 1013187
03:00+15se4109159 0.0 1013162
06:00+16ese4128570 0.0 1013246
09:00+21se511685 0.0 1013436
12:00+25se6115733 0.0 10121167
15:00+26se6105499 0.0 1012913
18:00+24ese612625 0.0 1010336
21:00+20ese616675 0.0 1011409
19 may, wed
wed1900:00+18se513745 0.0 1011306
03:00+16ese515790 0.0 1011322
06:00+17se5138077 0.0 1011360
09:00+22se614668 0.0 1011650
12:00+26se6135633 0.0 10101499
15:00+27se91552100 0.0 10101572
18:00+25se6136546 0.0 1009495
21:00+21se7157054 0.0 1010561
20 may, thu
thu2000:00+19se513815 0.0 1010397
03:00+17se513803 0.0 1009396
06:00+17ese410830 0.0 1010357
09:00+21se69680 0.0 1009663
12:00+23se8116492 0.3 10081495
15:00+23se71265100 1.6 10062116
18:00+19se61184100 2.6 1006915
21:00+16sse4993100 4.6 1006387
21 may, fri
fri2100:00+15se51188100 0.8 1005345
03:00+13se51096100 1.1 1005366
06:00+13sse71193100 0.0 1005720
09:00+14s8117522 0.1 10051036
12:00+16s9136764 0.0 10061503
15:00+16s813687 0.4 10051654
18:00+13s6107991 0.4 1005741
21:00+10ssw71287100 0.8 1005777